Погода в Троицке

Погода в Троицке : погода сейчас, прогноз погоды и архив. Всё, что Вы хотите узнать о погоде в Троицке!

Хотите узнать прогноз погоды в Троицке? Тогда Вам сюда: Погода в Троицке

Поиск расширенной информации на нашем сайте:

Другие новости

Новости СМИ2

Главная страница сайта

Новости сайта

03.07.2017

Напоминаем, что на нашем специализированном сайте Метеоцентр.Азия вы можете получить высокодетализированные автоматические прогнозы погоды по пунктам России, СНГ и мира в авиационном формате (включающие направление и скорость ветра, видимость, явления погоды, количество и форму облачности, нижнюю и верхнюю границу облачности).


Погода в Троицке - сегодня

Время (UTC), дата Ветер
(°,м/с) 
Видим.   Явления Облачность Т
(°С)
Тd
(°С)
f(%) Тe
(°С)
Pmin
(гПа)
dP
(гПа)
Po
(мм)
O2
(г/м3)
Тmin Tmax R s Состояние
почвы
00 22.09.18 310 (СЗ) 10 км    6/0 средняя, верхняя 
[Ac trans|Ci sp]
+9.8 +6.7 81 +9  1011.9  1.6  742  287           
03 22.09.18 300 (СЗ) 10 км    8/0 средняя 
[Ac trans]
+9.2 +6.3 82 +9  1014.1  2.1  743  289  +8.4        влажная 
06 22.09.18 310 (СЗ) 5{11}  10 км    6/3 600 м верхняя 
[Sc|Ci sp]
+14 +6.1 59 +13  1014.1  0.4  744  284           
09 22.09.18 310 (СЗ) 5{10}  10 км    8/0 средняя, верхняя 
[Ac trans|Ci sp]
+18.1 +4.9 42 +18  1013.5  -0.3  743  280           
18 22.09.18 320 (СЗ) 10 км    8/3 600 м средняя 
[Sc|Ac trans]
+12 +6.7 70 +12  1015.9  0.2  745  286           
21 22.09.18 320 (СЗ) 10 км    8/8 600 м средняя 
[Sc|Ac trans]
+12.4 +8 74 +13  1016.6  0.7  745  286           
00 23.09.18 280 (З) 10 км    3/0 верхняя 
[Ci fib]
+8.2 +6.5 89 +9  1018.2  1.2  746  291           
03 23.09.18 310 (СЗ) 2000 м  дымка  3/0 верхняя 
[Ci sp]
+7.5 +6.1 91 +8  1019.7  1.5  747  292  +6.6        сухая 
06 23.09.18 030 (СВ) 10 км    9/1 1000 м верхняя 
[Cu hum|Ci fib]
+14.8 +4.6 50 +15  1019.9  0.7  748  285           
09 23.09.18 350 (С) 10 км    9/0 верхняя 
[Ci fib]
+18 +1.9 34 +19  1019.1  -0.6  747  282           
12 23.09.18 360 (С) 10 км    9/0 верхняя 
[Ci fib]
+18.6 +1 31 +20  1019  747  282           
18 23.09.18 тихо ()   10 км    4/0 верхняя 
[Ci fib]
+8.1 +3.1 71 +8  1020.7  0.2  748  292           
21 23.09.18 тихо ()   10 км    ясно 
+5.9 +1.6 74 +6  1020.9  748  295           
00 24.09.18 130 (ЮВ) 10 км    ясно 
+4.7 +1.7 81 +6  1021.1  -0.1  748  296           
06 24.09.18 210 (ЮЗ) 10 км    3/0 верхняя 
[Ci fib]
+18.7 +8.4 51 +19  1019.4  -0.6  748  281           
09 24.09.18 200 (Ю) 5{10}  10 км    8/5 600 м верхняя 
[Cu med, cong|Ci sp]
+22.6 +7.8 39 +23  1018.3  -0.7  747  277           
18 24.09.18 200 (Ю) 10 км    ясно 
+14 +6.2 59 +14  1019.5  0.3  747  285           
21 24.09.18 180 (Ю) 10 км    ясно 
+11.9 +5.1 63 +13  1020.5  0.8  748  288           
00 25.09.18 160 (Ю) 10 км    3/0 средняя 
[Ac trans]
+10.4 +4.8 68 +11  1020.8  0.2  748  290           
03 25.09.18 140 (ЮВ) 10 км    3/1 600 м средняя, верхняя 
[Sc|Ac trans|Ci fib]
+10.3 +4.9 69 +10  1021.6  0.7  749  290  +9.1        сухая 
06 25.09.18 190 (Ю) 10 км    1/1 600 м 
[Sc]
+19 +4.8 39 +19  1021.1  0.3  749  281           
12 25.09.18 180 (Ю) 5{11}  10 км    1/0 верхняя 
[Ci fib]
+24.3 +2.4 24 +24  1019.6  -0.6  748  276           
18 25.09.18 180 (Ю) 10 км    ясно 
+11.9 -1.8 38 +12  1021.6  0.7  749  289           
21 25.09.18 180 (Ю) 10 км    ясно 
+9 +0 53 +8  1022.4  0.5  749  292           
00 26.09.18 160 (Ю) 10 км    ясно 
+8.3 +0.4 57 +8  1022.8  0.4  750  293           
Время (UTC), дата Ветер
(°,м/с) 
Видим.   Явления Облачность Т
(°С)
Тd
(°С)
f(%) Тe
(°С)
Pmin
(гПа)
dP
(гПа)
Po
(мм)
O2
(г/м3)
Тmin Tmax R s Состояние
почвы

Для получения пояснительной информации подведите курсор к названию столбца.

ПОГОДА в Троицке - архив

Всё, что Вы хотите узнать о погоде в Троицке - удобно и подробно!

Выберите нужную дату (начиная с 1 января 2015* года) и нажмите кнопку "Найти".
Будут отображены архивные сводки погоды по пункту Троицк, начиная с указанной даты.


Отображать данные в формате CSV (для использования в таблицах Excel)


Внимание! Наш архив погоды предназначен исключительно для личного некоммерческого использования в познавательных целях. Если Вам необходимы официальные справки о состоянии погоды (для производственных, юридических, коммерческих и т.п. целей), обращайтесь в органы Росгидромета.

*Примечание: данная дата относится к архиву по метеостанциям СССР (Россия, СНГ, Балтия).
Архив по метеостанциям Зарубежной Европы и Азии (кроме Китая) хранится 10 дней, по другим регионам земного шара (Китай, Африка, Америка, Австралия, Океания) - 1 день.

Троицк - район местоположения метеостанции


Название, широта, долгота, высота метеостанции:
Троицк 54.1°ш. 61.6°д. 192 м над ур. моря [Российская Федерация]

Дополнительная информация

В oтличие oт бoльшинства пoгoдных сайтoв мы публикуем пoдрoбную метеoинфoрмацию в детальнoм прoфессиoнальнoм фoрмате.

Характеристики температуры и влажнoсти вoздуха измеряются на высoте 2 м в тени вдали oт зданий и деревьев.
Скoрoсть ветра измеряется на высoте 10 м (на урoвне рoста челoвека скoрoсть ветра ниже в 1.5-2 раза). Если метеoстанция нахoдится в гoрoде или в лесу, тo скoрoсть ветра занижена на 2-4 м/с пo сравнению с oткрытым местoм. Скoрoсть ветра над акватoриями крупных рек и oзёр, а также на вершинах хoлмoв на 2-5 м/с выше, чем в oбычных услoвиях.
Атмoсфернoе давление в разных тoчках местнoсти мoжет значительнo oтличаться oт давления на метеoстанции, в зависимoсти oт услoвий рельефа (при пoдъёме на 10 м давление пoнижается примернo на 1 мм рт.ст.).